Location: Ferma
(41.9500°N, 44.5167°E)
Time: 13:03:13
(UTC+00:00)

SL-08 RB Rocket - Pass Details

Date: 24 October 2021
Orbit: 646 x 684 km, 97.8° (Epoch: 07 December)

Event Time Altitude Azimuth Distance (km) Brightness Sun altitude
Rises 14:55:24 0° 139° (SE) 2,983 6.7 -9.7°
Reaches altitude 10° 14:57:48 10° 129° (SE) 2,082 5.9 -10.1°
Maximum altitude 15:01:45 30° 69° (ENE) 1,194 4.5 -10.9°
Drops below altitude 10° 15:05:46 10° 8° (N) 2,116 6.2 -11.6°
Sets 15:08:14 0° 358° (N) 3,040 7.1 -12.1°
